Wind_Speed
9 13 18 16 6 9 16 17 17 19 14 14 12 17 22 15 7 11 16 24 21 20 25 22 20 18 17 15 13 11 10 10 10 9 10 10 10 8 8 9 9 8 7 5 6 5 5 4 4
11 6 11 10 1 12 13 17 16 12 6 20 24 24 24 19 21 24 19 22 21 22 23 21 19 17 15 13 11 10 10 9 9 9 9 8 8 7 7 8 6 6 4 4 4 5 4 3 3
13 8 11 4 11 13 13 14 13 13 15 20 25 23 24 17 19 19 20 23 21 20 19 21 18 15 14 12 11 11 10 9 8 8 8 7 7 7 7 6 6 4 2 4 3 4 3 2 3
10 16 11 7 17 17 16 11 17 17 15 17 19 13 18 14 23 23 20 21 19 23 15 19 17 15 13 11 10 10 9 8 8 8 7 7 7 7 6 5 5 4 3 4 3 3 3 3 5
17 16 7 13 19 17 16 7 23 14 14 21 20 17 19 16 19 23 19 16 24 23 13 17 16 14 12 11 11 9 9 8 7 7 7 7 6 6 6 5 4 4 4 5 4 4 3 3 6
18 3 5 8 16 14 14 9 19 15 11 16 23 19 17 16 18 18 16 15 21 17 14 15 16 13 11 11 11 10 8 8 7 6 6 6 6 5 4 4 3 4 4 4 4 3 4 4 7
17 8 7 15 15 12 5 17 17 11 18 9 22 17 14 18 16 17 16 14 13 11 7 17 15 14 12 10 9 9 8 6 6 6 5 5 4 4 4 3 3 2 3 4 5 5 4 5 8
12 9 3 8 14 11 6 13 6 17 14 9 8 10 18 17 17 17 15 16 11 14 4 9 12 13 12 10 9 8 7 7 6 5 6 4 3 1 1 1 3 1 3 3 5 6 7 7 8
18 7 4 10 15 12 9 12 9 13 10 12 11 21 24 21 18 18 17 14 14 17 12 9 7 9 9 8 9 9 8 8 6 5 4 2 3 4 2 3 3 5 5 3 3 4 7 8 9
21 6 7 13 10 6 11 5 6 17 24 9 20 20 21 21 19 18 14 14 12 12 15 13 14 12 13 9 9 10 9 8 6 5 6 5 4 10 5 7 7 9 6 4 4 5 7 10 9
17 7 11 13 8 7 13 9 1 26 12 35 19 21 22 20 18 16 17 18 17 16 15 15 14 14 15 14 11 11 10 9 10 11 9 8 8 7 7 13 12 8 5 5 3 7 9 10 13
5 4 8 9 4 4 9 11 10 7 18 16 20 20 21 19 17 16 16 16 17 18 16 14 15 14 12 15 15 11 12 10 13 14 13 11 12 14 15 7 9 7 8 6 10 10 6 9 9
10 4 1 2 2 3 5 9 4 7 17 14 18 19 19 17 16 15 15 14 15 13 11 14 14 15 10 16 10 10 7 10 7 12 12 13 16 12 16 18 14 6 8 12 12 12 9 13 15
10 5 10 7 7 6 1 17 7 10 10 13 17 19 18 17 16 16 15 15 17 16 15 17 18 18 14 16 16 16 13 15 16 11 10 11 12 14 17 18 20 16 16 17 19 16 6 16 15
6 10 12 14 5 5 10 14 15 9 12 11 15 18 18 17 16 16 16 15 14 15 15 17 16 15 16 17 14 11 10 10 11 8 14 17 16 17 20 18 19 21 19 18 19 18 17 15 11
11 13 14 14 5 3 6 15 35 10 15 12 13 15 19 16 15 15 15 14 14 14 17 17 11 15 16 13 11 9 9 13 8 11 14 16 21 17 17 20 16 13 12 20 16 18 14 12 13
14 12 14 9 8 7 5 10 10 4 14 14 10 12 17 17 15 14 15 15 16 15 17 17 13 19 12 7 7 9 11 12 11 12 11 14 16 19 17 20 15 14 16 14 17 18 16 14 15
10 11 8 1 3 8 8 8 11 9 8 17 13 11 13 15 15 13 12 12 13 15 15 17 23 15 6 4 18 20 14 13 12 10 9 12 15 19 18 22 23 20 20 20 21 20 20 20 23
10 12 12 6 2 2 11 6 6 13 7 15 18 15 14 14 14 14 11 10 10 12 17 18 13 21 9 5 26 10 12 8 6 10 14 14 19 18 23 23 22 21 24 23 21 23 20 16 18
10 10 10 9 5 3 11 11 8 5 8 6 17 21 16 15 15 14 13 10 9 10 12 16 11 10 9 4 8 24 7 5 2 9 12 11 13 15 17 19 20 21 22 23 25 24 19 17 19
11 10 11 7 4 8 13 14 16 13 13 9 5 22 19 18 19 15 13 11 7 9 11 15 11 9 6 4 8 6 6 4 3 4 6 7 10 14 16 17 20 20 19 22 22 23 24 28 24
12 11 5 10 9 11 5 10 6 12 11 12 12 8 20 16 21 18 15 11 9 9 9 12 4 6 4 4 3 3 3 2 2 1 8 9 9 13 14 14 14 16 17 18 19 20 21 23 26
11 6 7 9 11 13 16 8 8 6 1 15 15 13 8 18 18 16 14 12 11 11 8 8 7 6 7 5 4 4 3 4 4 3 7 9 10 6 12 17 13 15 16 15 16 17 19 21 24
9 5 10 11 12 12 15 10 6 8 12 1 13 7 11 17 16 15 14 13 14 12 11 9 8 8 6 5 3 4 4 5 3 5 6 5 7 12 14 13 11 11 11 12 15 13 15 18 21
9 9 7 9 11 3 17 12 7 8 12 9 7 13 9 18 17 16 17 15 15 16 12 11 10 7 7 6 4 2 3 5 8 5 4 8 8 12 13 13 9 8 9 8 7 12 12 13 17
10 12 9 15 13 4 12 6 22 8 12 15 7 4 13 18 18 18 16 13 13 16 15 13 9 9 9 6 4 5 5 2 1 6 8 8 10 11 14 12 9 6 4 9 4 6 11 10 13
11 12 14 13 16 14 10 8 12 16 5 15 14 12 15 18 19 18 16 15 14 17 17 15 9 6 9 7 5 5 5 2 5 7 6 7 11 13 14 12 13 9 7 4 5 4 6 6 8
11 14 7 9 14 14 13 7 2 8 16 13 10 12 16 17 18 18 18 15 15 15 17 13 13 10 10 7 5 4 5 3 4 8 9 11 12 13 16 16 13 12 11 11 4 5 3 4 4
10 11 11 13 13 12 11 1 12 13 10 10 13 14 16 16 17 17 14 15 15 16 14 15 11 11 9 7 7 5 4 2 6 7 8 9 12 13 16 15 15 13 11 8 8 8 6 5 5
14 10 10 9 10 11 11 4 8 13 16 7 20 17 15 16 17 17 16 15 16 16 15 16 12 13 10 11 8 6 5 3 6 5 6 10 12 13 15 14 16 16 14 12 9 7 5 4 4
Wind_Direction
313 333 332 299 242 75 69 61 47 60 58 67 50 56 66 66 93 128 134 122 130 141 148 140 135 133 136 137 134 132 131 123 121 124 121 123 120 117 126 129 126 117 109 93 97 94 86 93 100
345 352 288 284 200 82 74 68 64 53 33 69 40 50 67 69 96 114 119 127 128 141 143 144 138 137 133 132 134 137 139 135 132 137 131 129 120 120 130 129 123 111 100 92 92 94 89 99 107
349 342 294 276 71 85 92 96 88 77 49 74 75 58 74 87 114 117 130 126 128 132 147 145 143 138 135 137 139 142 142 140 140 140 137 133 130 131 135 136 134 109 109 100 94 88 88 104 124
338 311 248 88 91 86 85 53 105 100 85 61 84 80 67 60 118 126 133 124 125 143 162 148 145 142 139 138 137 141 144 147 147 145 144 139 139 133 138 128 124 148 141 127 125 95 69 73 141
351 359 317 107 93 96 97 104 94 91 68 73 83 91 82 87 109 127 132 132 141 158 142 151 148 144 143 141 140 144 146 145 147 144 141 138 133 130 128 132 133 132 145 142 144 135 97 87 147
58 83 293 104 109 109 128 75 102 96 110 121 102 91 96 114 121 131 132 138 160 170 168 166 154 151 150 147 145 146 150 146 146 150 149 146 141 144 141 137 136 144 150 154 152 159 133 128 165
140 157 227 106 93 73 84 156 98 96 84 78 101 108 127 130 133 137 136 130 146 156 152 171 163 158 156 154 155 150 148 154 158 164 169 173 172 164 153 150 155 183 174 176 166 169 164 168 172
178 182 219 102 110 94 131 84 66 99 90 88 146 130 141 137 140 141 145 142 128 144 132 172 170 167 166 166 169 167 166 168 178 182 183 188 187 76 230 204 174 225 220 191 174 177 192 184 181
264 332 341 63 66 110 68 126 94 83 115 86 64 117 137 143 142 145 155 149 157 155 151 167 199 181 170 183 188 190 190 196 200 206 204 172 164 5 349 208 310 276 261 247 185 196 206 193 191
62 351 304 49 35 36 110 42 130 136 44 97 105 116 135 144 148 148 161 176 178 162 168 189 197 198 189 185 202 212 214 219 218 221 201 190 224 236 238 257 282 296 260 253 235 214 216 206 199
133 225 221 87 4 11 356 143 23 115 117 224 137 141 146 150 154 160 173 181 194 202 207 193 196 205 205 187 207 208 212 206 213 215 232 197 215 199 242 260 267 273 249 250 227 279 236 224 211
222 58 356 63 55 353 22 344 65 61 132 127 145 151 152 159 164 168 174 172 183 189 207 212 211 219 217 206 212 206 211 214 222 229 237 233 230 214 214 225 229 237 250 229 226 245 222 232 239
289 81 304 235 270 344 341 275 57 65 94 119 143 156 161 164 167 173 174 172 177 188 199 201 209 210 207 209 210 203 216 216 263 233 250 252 244 227 238 220 213 226 246 233 248 232 227 245 232
357 345 306 289 289 263 260 334 141 111 115 136 154 163 170 170 172 174 179 177 182 188 193 190 194 212 216 227 213 214 209 209 242 229 273 260 269 255 256 249 245 245 253 251 238 222 216 230 237
280 270 251 232 230 296 53 357 328 125 137 150 162 171 176 174 176 178 181 184 190 187 196 206 205 221 223 237 223 224 214 222 232 240 245 262 262 268 259 268 265 254 268 243 251 236 270 235 244
250 256 259 236 117 151 175 165 254 167 150 160 171 178 173 175 179 182 183 189 193 194 198 203 204 211 235 241 225 229 207 228 222 234 240 235 257 273 263 270 275 284 263 234 257 265 265 239 243
227 254 242 135 118 333 282 162 140 187 140 146 167 185 174 179 181 180 183 193 199 204 203 203 206 203 182 224 234 236 216 228 216 248 243 264 269 275 262 271 271 264 273 230 237 246 247 234 234
313 223 257 130 122 176 271 254 142 147 186 156 168 181 187 188 190 184 191 197 202 205 215 205 218 244 317 125 322 236 218 208 222 251 252 269 264 267 268 270 269 255 247 254 242 234 239 241 245
339 321 332 11 146 47 288 313 281 148 173 171 155 171 196 200 198 180 193 198 206 218 226 220 234 256 278 227 298 239 212 225 215 237 255 253 264 277 278 273 265 261 258 260 255 242 247 236 243
298 285 282 270 128 218 279 278 268 200 155 196 170 167 189 194 196 189 190 202 211 218 239 242 252 242 196 82 156 175 228 247 222 230 273 283 290 294 289 284 276 268 263 258 256 249 248 244 216
265 270 273 305 313 231 242 257 244 231 155 189 213 171 176 195 189 181 191 203 222 215 219 248 253 225 247 206 201 179 207 193 238 249 329 283 298 299 293 288 285 283 272 266 258 255 248 248 237
265 307 232 300 288 275 330 270 214 191 186 172 175 180 173 182 175 179 191 199 201 196 209 238 193 188 240 169 134 155 74 128 245 32 276 304 332 342 333 315 296 291 282 269 265 255 250 247 243
263 8 305 274 271 273 269 252 79 170 274 178 169 153 175 160 169 177 188 189 186 177 189 178 183 193 172 171 133 119 104 51 309 291 356 339 330 331 316 322 303 306 291 271 261 257 247 242 239
276 296 266 259 256 258 259 249 161 129 157 103 113 114 158 150 165 172 176 175 179 180 175 179 172 179 169 155 198 196 209 201 216 15 352 31 322 317 324 334 323 318 311 283 264 253 251 244 240
236 253 256 239 236 333 358 325 317 104 123 110 97 132 151 151 164 172 171 166 174 177 173 174 185 172 175 166 165 154 115 58 354 358 357 8 331 330 346 349 349 344 351 336 277 251 255 246 241
217 249 273 300 297 112 193 218 263 115 124 122 138 127 145 158 167 177 173 172 176 176 170 170 173 159 152 186 178 147 98 84 323 330 44 338 347 345 356 2 16 7 2 348 357 271 266 264 247
255 234 245 280 282 279 244 197 41 12 345 131 133 141 150 162 169 171 174 180 178 179 177 176 190 186 161 202 187 147 144 202 341 34 29 339 14 14 16 28 22 21 16 347 3 358 330 285 256
247 279 253 230 262 272 276 98 103 93 290 122 131 148 147 162 167 171 169 170 177 178 178 184 205 194 175 200 170 118 68 34 19 56 350 12 28 30 39 37 33 35 37 38 11 0 339 301 264
205 235 257 277 289 302 294 170 153 168 207 166 157 155 157 164 160 158 164 165 172 173 170 187 196 167 185 174 154 131 105 316 59 40 0 19 37 37 44 41 42 36 44 53 55 58 63 69 93
245 288 203 241 257 250 276 68 165 202 230 277 141 150 161 160 159 162 156 163 166 171 172 185 162 170 168 171 168 154 163 307 72 59 18 29 45 43 45 42 46 44 39 45 56 56 64 85 100
Height
1482 1480 1478 1480 1480 1468 1485 1487 1476 1484 1488 1489 1488 1487 1496 1499 1503 1524 1520 1520 1522 1526 1530 1533 1536 1539 1541 1543 1545 1548 1549 1551 1552 1555 1556 1558 1559 1560 1562 1563 1565 1566 1567 1568 1569 1569 1571 1571 1572
1484 1480 1484 1475 1477 1490 1495 1484 1492 1490 1488 1489 1492 1493 1501 1505 1506 1513 1521 1522 1526 1528 1532 1535 1538 1540 1542 1545 1547 1549 1551 1553 1554 1556 1557 1559 1560 1562 1564 1565 1566 1566 1569 1568 1570 1571 1571 1572 1573
1486 1484 1485 1474 1469 1490 1496 1486 1488 1491 1490 1490 1499 1504 1506 1510 1513 1518 1525 1524 1529 1533 1535 1536 1539 1542 1544 1546 1548 1550 1552 1553 1556 1557 1559 1560 1561 1563 1565 1566 1567 1568 1569 1570 1571 1572 1572 1572 1573
1492 1486 1481 1473 1481 1479 1484 1483 1483 1489 1494 1493 1496 1506 1513 1514 1514 1521 1527 1528 1532 1535 1536 1538 1541 1544 1545 1548 1550 1552 1553 1555 1556 1558 1559 1560 1562 1563 1565 1566 1567 1568 1569 1570 1570 1572 1571 1572 1573
1497 1500 1490 1475 1480 1479 1483 1485 1484 1490 1495 1497 1503 1511 1516 1520 1521 1524 1528 1531 1532 1534 1538 1540 1542 1545 1547 1548 1551 1553 1554 1555 1557 1558 1559 1561 1562 1564 1565 1566 1567 1567 1569 1569 1569 1570 1571 1572 1573
1509 1523 1524 1483 1480 1477 1480 1482 1483 1489 1494 1496 1501 1510 1518 1523 1525 1528 1530 1533 1532 1534 1538 1541 1543 1546 1548 1550 1551 1553 1556 1556 1558 1559 1560 1561 1562 1564 1566 1566 1566 1567 1568 1568 1569 1569 1570 1571 1572
1507 1510 1509 1472 1480 1484 1481 1485 1481 1487 1492 1498 1501 1510 1519 1522 1525 1528 1532 1534 1534 1536 1538 1541 1544 1546 1548 1551 1552 1553 1555 1557 1559 1560 1561 1562 1562 1564 1565 1566 1567 1566 1566 1567 1567 1568 1568 1569 1571
1494 1499 1482 1480 1480 1488 1478 1481 1484 1489 1497 1500 1501 1508 1516 1522 1526 1529 1533 1536 1535 1537 1537 1541 1543 1545 1548 1550 1552 1554 1555 1556 1558 1560 1561 1562 1563 1564 1565 1566 1566 1566 1566 1566 1565 1566 1566 1567 1569
1485 1493 1483 1475 1478 1479 1477 1481 1487 1497 1502 1503 1504 1505 1513 1521 1525 1529 1533 1536 1536 1538 1539 1541 1544 1546 1548 1550 1552 1553 1554 1556 1557 1558 1560 1561 1562 1562 1562 1564 1564 1565 1565 1566 1566 1566 1566 1567 1568
1495 1506 1493 1475 1478 1478 1480 1480 1483 1495 1507 1508 1507 1513 1516 1521 1524 1527 1533 1536 1538 1539 1541 1542 1544 1546 1547 1548 1551 1553 1554 1555 1556 1557 1558 1559 1561 1562 1562 1562 1564 1565 1565 1566 1567 1566 1567 1567 1568
1510 1515 1485 1480 1484 1482 1478 1480 1482 1493 1509 1511 1508 1513 1516 1520 1523 1527 1529 1532 1535 1538 1540 1544 1546 1546 1547 1548 1549 1550 1552 1554 1555 1556 1557 1559 1559 1559 1563 1562 1563 1564 1564 1565 1566 1566 1565 1566 1567
1488 1483 1481 1484 1485 1484 1482 1482 1481 1486 1494 1499 1505 1511 1515 1519 1522 1525 1527 1531 1532 1535 1538 1542 1544 1544 1546 1547 1548 1548 1550 1552 1553 1555 1556 1557 1557 1558 1560 1561 1562 1562 1564 1564 1564 1561 1562 1565 1566
1484 1483 1486 1484 1484 1486 1488 1485 1484 1489 1493 1498 1505 1511 1515 1518 1521 1525 1527 1530 1533 1534 1537 1539 1542 1544 1545 1547 1548 1549 1550 1551 1551 1552 1553 1554 1555 1556 1557 1558 1559 1561 1562 1560 1557 1562 1569 1564 1567
1486 1485 1484 1483 1482 1484 1485 1484 1482 1489 1494 1499 1504 1510 1513 1516 1520 1523 1526 1529 1531 1533 1536 1539 1541 1544 1545 1546 1547 1547 1549 1549 1549 1547 1550 1552 1552 1553 1554 1555 1557 1559 1558 1556 1553 1560 1544 1570 1568
1490 1489 1483 1479 1479 1482 1483 1495 1493 1492 1494 1500 1503 1508 1511 1515 1519 1522 1525 1528 1531 1532 1534 1537 1540 1544 1546 1547 1548 1547 1549 1548 1547 1549 1550 1550 1550 1551 1550 1550 1552 1553 1553 1550 1548 1556 1559 1560 1556
1490 1486 1489 1467 1476 1478 1484 1524 1498 1491 1491 1498 1502 1505 1509 1514 1518 1521 1525 1527 1530 1530 1533 1537 1540 1541 1542 1545 1547 1550 1549 1551 1551 1550 1549 1547 1547 1548 1548 1548 1548 1549 1548 1547 1545 1544 1545 1547 1555
1484 1494 1482 1477 1475 1478 1481 1488 1483 1486 1488 1496 1502 1506 1508 1513 1517 1520 1523 1526 1528 1530 1532 1536 1541 1534 1537 1545 1547 1549 1549 1548 1548 1550 1549 1545 1544 1543 1544 1545 1545 1547 1545 1545 1545 1543 1545 1550 1553
1488 1483 1473 1479 1474 1478 1481 1478 1476 1482 1486 1492 1499 1505 1510 1514 1517 1520 1523 1526 1527 1529 1530 1534 1529 1529 1525 1533 1537 1528 1544 1546 1547 1546 1547 1545 1541 1541 1541 1541 1541 1542 1543 1541 1541 1544 1548 1553 1551
1483 1484 1482 1475 1473 1483 1484 1479 1479 1479 1482 1485 1494 1503 1508 1513 1517 1519 1524 1525 1526 1528 1528 1525 1532 1528 1528 1543 1534 1531 1541 1543 1543 1545 1545 1542 1538 1538 1536 1535 1536 1537 1536 1538 1537 1538 1544 1539 1535
1488 1489 1488 1476 1473 1484 1484 1482 1472 1473 1477 1482 1487 1496 1504 1509 1514 1518 1522 1524 1525 1527 1525 1524 1527 1530 1536 1539 1534 1526 1536 1542 1541 1544 1542 1540 1535 1533 1531 1530 1530 1531 1531 1531 1530 1535 1540 1540 1544
1489 1490 1485 1483 1476 1476 1479 1484 1474 1469 1473 1479 1483 1488 1497 1503 1509 1515 1519 1523 1524 1525 1525 1524 1527 1531 1533 1535 1538 1532 1541 1542 1542 1541 1540 1535 1532 1531 1529 1527 1526 1525 1525 1525 1525 1527 1530 1533 1535
1496 1474 1479 1484 1490 1500 1468 1500 1469 1466 1473 1475 1481 1485 1491 1499 1505 1512 1517 1520 1522 1523 1522 1522 1525 1528 1531 1534 1531 1537 1539 1542 1540 1539 1536 1534 1531 1530 1527 1525 1523 1521 1520 1521 1521 1523 1523 1524 1527
1488 1478 1483 1484 1488 1487 1479 1485 1482 1467 1472 1470 1475 1482 1488 1495 1502 1509 1514 1517 1521 1522 1521 1521 1524 1527 1529 1528 1531 1532 1535 1536 1536 1536 1534 1533 1532 1530 1527 1524 1521 1519 1518 1517 1517 1519 1519 1520 1524
1481 1484 1484 1483 1485 1503 1482 1482 1476 1476 1478 1471 1473 1481 1486 1493 1502 1508 1513 1516 1519 1521 1523 1523 1523 1525 1527 1529 1530 1531 1533 1534 1534 1534 1535 1534 1533 1530 1525 1523 1520 1518 1516 1515 1514 1515 1517 1519 1520
1485 1492 1510 1510 1502 1514 1501 1484 1471 1460 1462 1468 1474 1480 1486 1492 1501 1507 1510 1514 1518 1521 1523 1524 1525 1526 1529 1530 1531 1532 1534 1535 1535 1535 1535 1534 1531 1527 1524 1521 1519 1517 1516 1515 1514 1515 1515 1516 1518
1485 1488 1504 1523 1508 1511 1493 1518 1493 1458 1463 1470 1476 1479 1484 1491 1499 1505 1510 1514 1517 1520 1523 1526 1526 1527 1530 1532 1532 1534 1536 1538 1536 1535 1534 1532 1529 1527 1523 1521 1519 1517 1516 1515 1514 1515 1516 1517 1518
1483 1491 1475 1492 1483 1492 1480 1479 1469 1474 1474 1471 1475 1480 1484 1490 1497 1503 1508 1512 1516 1518 1521 1524 1525 1528 1531 1533 1533 1534 1535 1536 1536 1536 1534 1532 1529 1527 1524 1521 1519 1518 1516 1515 1515 1514 1514 1516 1517
1478 1474 1493 1487 1517 1516 1486 1502 1509 1506 1507 1473 1479 1482 1484 1489 1494 1500 1505 1510 1515 1518 1521 1525 1526 1528 1531 1533 1534 1535 1536 1537 1537 1536 1534 1531 1529 1528 1525 1523 1521 1519 1518 1517 1516 1516 1513 1516 1518
1480 1485 1482 1481 1483 1500 1501 1495 1487 1491 1473 1475 1476 1483 1486 1489 1493 1499 1504 1510 1514 1517 1520 1523 1525 1527 1531 1533 1535 1536 1537 1537 1537 1538 1534 1532 1530 1529 1526 1524 1523 1521 1520 1519 1519 1519 1519 1519 1519
1466 1469 1473 1494 1496 1481 1484 1499 1480 1480 1474 1471 1473 1480 1485 1489 1493 1499 1504 1509 1513 1516 1520 1522 1525 1526 1529 1533 1535 1537 1537 1537 1537 1537 1535 1533 1532 1531 1529 1527 1525 1524 1523 1522 1521 1521 1521 1521 1521